| time (UTC) | temp F | wind direction | speed MPH | gust MPH | rain 1hr in | rain 24hr in | rain mn in | humidity % | barometer mb |
| 20260505173309 | 56 | 43 | 7.0 | 14.0 | 0.00 | 0.00 | 0.00 | 63 | 7.7 |
| 20260505172309 | 57 | 61 | 6.0 | 13.0 | 0.00 | 0.00 | 0.00 | 62 | 7.7 |
| 20260505171309 | 58 | 85 | 2.0 | 12.0 | 0.00 | 0.00 | 0.00 | 62 | 7.8 |
| 20260505165309 | 58 | 71 | 2.0 | 14.0 | 0.00 | 0.00 | 0.00 | 60 | 7.8 |
| 20260505164309 | 58 | 60 | 2.0 | 11.0 | 0.00 | 0.00 | 0.00 | 62 | 7.9 |
| 20260505163310 | 59 | 42 | 5.0 | 14.0 | 0.00 | 0.00 | 0.00 | 59 | 8.0 |
| 20260505162309 | 59 | 90 | 5.0 | 15.0 | 0.00 | 0.00 | 0.00 | 60 | 8.0 |
| 20260505161309 | 59 | 84 | 3.0 | 11.0 | 0.00 | 0.00 | 0.00 | 61 | 7.9 |
| 20260505152309 | 58 | 105 | 1.0 | 11.0 | 0.00 | 0.00 | 0.00 | 64 | 8.2 |
| 20260505151310 | 57 | 74 | 3.0 | 10.0 | 0.00 | 0.00 | 0.00 | 66 | 8.3 |
| 20260505122309 | 53 | 84 | 0.0 | 10.0 | 0.00 | 0.00 | 0.00 | 76 | 9.1 |
| 20260505121309 | 53 | 75 | 3.0 | 12.0 | 0.00 | 0.00 | 0.00 | 75 | 9.1 |
| 20260505115309 | 53 | 94 | 5.0 | 11.0 | 0.00 | 0.00 | 0.00 | 76 | 9.4 |
| 20260505114309 | 53 | 74 | 0.0 | 11.0 | 0.00 | 0.00 | 0.00 | 77 | 9.4 |
| 20260505113309 | 52 | 69 | 3.0 | 14.0 | 0.00 | 0.00 | 0.00 | 76 | 9.3 |
| 20260505112309 | 52 | 57 | 2.0 | 9.0 | 0.00 | 0.00 | 0.00 | 77 | 9.4 |
| 20260505111310 | 52 | 55 | 2.0 | 7.0 | 0.00 | 0.00 | 0.00 | 77 | 9.4 |
| 20260505095310 | 53 | 76 | 3.0 | 11.0 | 0.00 | 0.00 | 0.00 | 77 | 9.8 |
| 20260505093310 | 52 | 343 | 0.0 | 8.0 | 0.00 | 0.00 | 0.00 | 78 | 10.1 |
| 20260505084310 | 50 | 54 | 3.0 | 13.0 | 0.00 | 0.00 | 0.00 | 80 | 9.7 |
| 20260505083310 | 50 | 50 | 2.0 | 9.0 | 0.00 | 0.00 | 0.00 | 81 | 9.8 |
| 20260505082310 | 50 | 90 | 3.0 | 15.0 | 0.00 | 0.00 | 0.00 | 80 | 9.7 |
| 20260505075310 | 50 | 78 | 4.0 | 14.0 | 0.00 | 0.00 | 0.00 | 82 | 9.8 |
| 20260505074310 | 49 | 54 | 7.0 | 13.0 | 0.00 | 0.00 | 0.00 | 82 | 9.9 |
| 20260505073310 | 49 | 69 | 5.0 | 14.0 | 0.00 | 0.00 | 0.00 | 83 | 9.8 |
| 20260505072310 | 49 | 73 | 7.0 | 14.0 | 0.00 | 0.00 | 0.00 | 84 | 9.8 |
| 20260505071310 | 49 | 68 | 5.0 | 12.0 | 0.00 | 0.00 | 0.00 | 84 | 9.8 |
| 20260505065310 | 49 | 30 | 1.0 | 12.0 | 0.00 | 0.00 | 0.00 | 85 | 10.0 |
| 20260505064313 | 49 | 59 | 2.0 | 12.0 | 0.00 | 0.00 | 0.00 | 85 | 10.2 |
| 20260505063310 | 49 | 44 | 5.0 | 11.0 | 0.00 | 0.00 | 0.00 | 85 | 10.1 |
| 20260505062310 | 49 | 90 | 6.0 | 12.0 | 0.00 | 0.00 | 0.00 | 85 | 10.3 |
| 20260505061310 | 49 | 30 | 3.0 | 8.0 | 0.00 | 0.00 | 0.00 | 85 | 10.3 |
| 20260505055311 | 49 | 63 | 1.0 | 7.0 | 0.00 | 0.00 | 0.00 | 85 | 10.5 |
| 20260505054310 | 49 | 355 | 3.0 | 12.0 | 0.00 | 0.00 | 0.00 | 85 | 10.3 |
| 20260505052310 | 49 | 19 | 3.0 | 11.0 | 0.00 | 0.00 | 0.00 | 85 | 9.8 |
| 20260505041310 | 49 | 55 | 1.0 | 12.0 | 0.00 | 0.00 | 0.00 | 86 | 9.9 |
| 20260505035310 | 49 | 53 | 6.0 | 12.0 | 0.00 | 0.00 | 0.00 | 85 | 10.0 |
| 20260505034310 | 49 | 49 | 3.0 | 9.0 | 0.00 | 0.00 | 0.00 | 86 | 9.9 |
| 20260505033311 | 49 | 62 | 2.0 | 10.0 | 0.00 | 0.00 | 0.00 | 86 | 10.0 |
| 20260505032310 | 49 | 77 | 0.0 | 5.0 | 0.00 | 0.00 | 0.00 | 86 | 10.0 |
| 20260505031310 | 50 | 44 | 1.0 | 11.0 | 0.00 | 0.00 | 0.00 | 86 | 10.0 |
| 20260505024310 | 50 | 44 | 2.0 | 9.0 | 0.00 | 0.00 | 0.00 | 85 | 10.0 |
| 20260505023311 | 50 | 36 | 3.0 | 13.0 | 0.00 | 0.00 | 0.00 | 85 | 10.0 |
| 20260505022310 | 50 | 63 | 9.0 | 15.0 | 0.00 | 0.00 | 0.00 | 84 | 10.0 |
| 20260505015310 | 51 | 38 | 1.0 | 11.0 | 0.00 | 0.00 | 0.00 | 84 | 10.1 |
| 20260505013311 | 51 | 36 | 1.0 | 8.0 | 0.00 | 0.00 | 0.00 | 84 | 10.3 |
| 20260505012311 | 51 | 17 | 4.0 | 13.0 | 0.00 | 0.00 | 0.00 | 84 | 10.4 |
| 20260505011312 | 51 | 71 | 0.0 | 9.0 | 0.00 | 0.00 | 0.00 | 84 | 10.4 |
| 20260505003311 | 52 | 9 | 2.0 | 13.0 | 0.00 | 0.00 | 0.00 | 84 | 10.4 |
| 20260505001310 | 53 | 57 | 4.0 | 16.0 | 0.00 | 0.00 | 0.00 | 83 | 10.5 |
| 20260504235310 | 53 | 63 | 2.0 | 10.0 | 0.00 | 0.00 | 0.00 | 83 | 10.6 |
| 20260504234310 | 54 | 88 | 3.0 | 10.0 | 0.00 | 0.00 | 0.00 | 82 | 10.7 |
| 20260504232310 | 54 | 14 | 3.0 | 10.0 | 0.00 | 0.00 | 0.00 | 82 | 10.8 |
| 20260504231314 | 54 | 22 | 3.0 | 13.0 | 0.00 | 0.00 | 0.00 | 81 | 10.8 |
| 20260504225309 | 55 | 36 | 0.0 | 8.0 | 0.00 | 0.00 | 0.00 | 81 | 10.8 |
| 20260504224309 | 55 | 5 | 1.0 | 10.0 | 0.00 | 0.00 | 0.00 | 81 | 10.9 |
| 20260504223309 | 55 | 19 | 4.0 | 11.0 | 0.00 | 0.00 | 0.00 | 82 | 11.0 |
| 20260504221309 | 56 | 43 | 0.0 | 11.0 | 0.00 | 0.00 | 0.00 | 81 | 11.1 |
| 20260504220313 | 56 | 18 | 2.0 | 7.0 | 0.00 | 0.00 | 0.00 | 82 | 11.2 |
| 20260504214310 | 56 | 41 | 0.0 | 3.0 | 0.00 | 0.00 | 0.00 | 82 | 11.3 |
| 20260504213310 | 56 | 62 | 0.0 | 2.0 | 0.00 | 0.00 | 0.00 | 82 | 11.3 |
| 20260504210309 | 57 | 48 | 0.0 | 2.0 | 0.00 | 0.00 | 0.00 | 82 | 11.4 |
| 20260504205309 | 57 | 355 | 0.0 | 2.0 | 0.00 | 0.00 | 0.00 | 82 | 11.3 |
| 20260504204310 | 57 | 63 | 0.0 | 1.0 | 0.00 | 0.00 | 0.00 | 82 | 11.5 |
| 20260504203310 | 57 | 355 | 0.0 | 2.0 | 0.00 | 0.00 | 0.00 | 82 | 11.3 |
| 20260504202310 | 57 | 16 | 0.0 | 1.0 | 0.00 | 0.00 | 0.00 | 82 | 11.3 |
| 20260504201310 | 57 | 49 | 1.0 | 8.0 | 0.00 | 0.00 | 0.00 | 81 | 11.3 |
| 20260504195310 | 58 | 342 | 0.0 | 4.0 | 0.00 | 0.00 | 0.00 | 81 | 11.3 |
| 20260504194310 | 58 | 48 | 0.0 | 3.0 | 0.00 | 0.00 | 0.00 | 81 | 11.2 |
| 20260504192310 | 58 | 77 | 1.0 | 5.0 | 0.00 | 0.00 | 0.00 | 81 | 11.0 |
| 20260504191310 | 59 | 57 | 0.0 | 2.0 | 0.00 | 0.00 | 0.00 | 80 | 11.0 |
| 20260504184310 | 60 | 35 | 1.0 | 9.0 | 0.00 | 0.00 | 0.00 | 79 | 11.0 |
| 20260504182311 | 60 | 31 | 0.0 | 2.0 | 0.00 | 0.00 | 0.00 | 79 | 10.7 |
| 20260504175310 | 61 | 49 | 0.0 | 9.0 | 0.00 | 0.00 | 0.00 | 76 | 10.8 |
| 20260504174309 | 61 | 67 | 0.0 | 9.0 | 0.00 | 0.00 | 0.00 | 76 | 10.9 |